Погода в Барагаше

Россия / Республика Алтай     51°16′20″N   85°11′41″E
темп.,
°C
ветер,
м/с
пор.,
м/с
влажн.,
%
обл.,
%
осадки,
мм/ч
давл.,
гПа
погр.,
м
28 октября, чт
чт2801:00−3с1294100 1.4 1027180
04:00−4ссв1295100 0.5 1028154
07:00−4всв1196100 0.8 102961
10:00−3юв1183100 0.0 1029209
13:00+2юз126784 0.0 1026696
16:00+3сз126485 0.0 1025739
19:00−1св118692 0.0 102710
22:000ююз228170 0.0 102760
29 октября, пт
пт2901:00−3ю22895 0.0 102834
04:00−4ю33946 0.0 102953
07:00−4ю349574 0.0 102997
10:000ю358191 0.0 1028316
13:00+4ююз4656100 0.0 1025892
16:00+5ююз475410 0.0 10241066
19:00−1ю32775 0.0 102837
22:00−2ю34855 0.0 102961
30 октября, сб
сб3001:00−3ю36875 0.0 1030117
04:00−3ю378582 0.0 1029130
07:00−2ю3885100 0.0 1029210
10:00+1ююз41171100 0.0 1028991
13:00+4ююз71353100 0.0 10271742
16:00+3ююз5963100 0.1 10271382
19:00−1ююз2583100 0.1 1029124
22:00−1ююз2585100 0.1 1029188
31 октября, вс
вс3101:00−1ююз41077100 0.1 1028643
04:00−1ююз497494 0.0 1026526
07:00−3ююз39775 0.0 1025295
10:000ююз61266100 0.0 10221040
13:00+1ююз91854100 0.0 10181411
16:00+1ююз102255100 0.0 10161817
19:00−1юз112353100 0.0 10161796
22:00−2юз7156969 0.0 10181330
1 ноября, пн
пн101:00−4юз497699 0.0 1019339
04:00−3юз2592100 0.6 1021392
07:00−5сз129583 1.8 1024119
10:00−6з128784 0.1 1027262
13:00−3зюз2552100 0.1 10261044
16:00−3юз2442100 0.0 1026907
19:00−4ююз3761100 0.0 1026388
22:00−4ююз3868100 0.0 1024415